This is the latest recevied weather packets stored in our database for station/object KK4KTV-13. If no packets are shown the sender has not sent any weather packets the latest 10 day(s).
| Time | Temp. | Humidity | Pressure | Rain* | Wind** | Luminosity | Snow |
|---|---|---|---|---|---|---|---|
| 1778056720 | 16.11° C | 99% | 1006.1 hPa | 0 mm | - | 0 W/m² | - |
| 1778056418 | 16.11° C | 99% | 1006 hPa | 0 mm | - | 0 W/m² | - |
| 1778056115 | 16.11° C | 99% | 1005.8 hPa | 0 mm | - | 0 W/m² | - |
| 1778055811 | 16.11° C | 99% | 1005.8 hPa | 0 mm | - | 0 W/m² | - |
| 1778055508 | 16.11° C | 99% | 1005.7 hPa | 0 mm | - | 0 W/m² | - |
| 1778055206 | 16.11° C | 99% | 1005.5 hPa | 0 mm | - | 0 W/m² | - |
| 1778054903 | 16.11° C | 99% | 1005.5 hPa | 0 mm | - | 0 W/m² | - |
| 1778054599 | 16.11° C | 99% | 1005.6 hPa | 0 mm | - | 0 W/m² | - |
| 1778054297 | 16.11° C | 99% | 1005.4 hPa | 0 mm | - | 0 W/m² | - |
| 1778053995 | 16.11° C | 99% | 1005.3 hPa | 0 mm | - | 0 W/m² | - |
| 1778053691 | 16.11° C | 99% | 1005.3 hPa | 0 mm | - | 0 W/m² | - |
| 1778053389 | 16.11° C | 99% | 1005.7 hPa | 0 mm | - | 0 W/m² | - |
| 1778053086 | 16.11° C | 98% | 1005.2 hPa | 0 mm | - | 0 W/m² | - |
| 1778052784 | 16.11° C | 98% | 1005 hPa | 0 mm | - | 0 W/m² | - |
| 1778052480 | 16.11° C | 98% | 1005 hPa | 0 mm | - | 0 W/m² | - |
| 1778052178 | 16.11° C | 98% | 1005.1 hPa | 0 mm | - | 0 W/m² | - |
| 1778051875 | 16.11° C | 98% | 1005 hPa | 1.27 mm | - | 0 W/m² | - |
| 1778051573 | 16.11° C | 98% | 1005.1 hPa | 4.32 mm | - | 0 W/m² | - |
| 1778051264 | 16.11° C | 97% | 1004.8 hPa | 6.6 mm | - | 0 W/m² | - |
| 1778050961 | 16.11° C | 96% | 1005 hPa | 4.83 mm | - | 0 W/m² | - |
| 1778050659 | 16.11° C | 96% | 1005.2 hPa | 3.05 mm | - | 0 W/m² | - |
| 1778050357 | 16.11° C | 96% | 1005.2 hPa | 1.27 mm | - | 0 W/m² | - |
| 1778050052 | 15.56° C | 96% | 1005.1 hPa | 3.05 mm | - | 0 W/m² | - |
| 1778049748 | 15.56° C | 96% | 1005.2 hPa | 1.78 mm | - | 0 W/m² | - |
| 1778049446 | 15.56° C | 96% | 1005.1 hPa | 0 mm | - | 0 W/m² | - |
* Rain latest hour (hover to see other rain measurements)
** Current wind speed in m/s (hover to see current wind gust speed)